Torna al catalogo

STARLINK-5454

AttivoComunicazioniVLEO
NORAD 54774·PAYLOAD·🇺🇸 United States

Lanciato Dec 17, 2022 da Cape Canaveral Space Force Station

Loading…

Prossimi Passaggi (prossime 24 ore)

TLE

AggiornatoSource: CelesTrak SupGP

Epoca: Sep 14, 2026, 14:16 UTC

1 54774C 22175S   26257.59493056 -.00033809  00000+0 -99911-3 0  2570
2 54774  53.1563 247.5413 0001355  85.7476 221.0762 15.34400289    16

Traccia STARLINK-5454 in tempo reale con AllMySat

Download on the App Store